Skip Page Navigation
NASA JPL Caltech
NASA Logo - Jet Propulsion Laboratory + View the NASA Portal
+ Center for Near-Earth Object Studies
JPL Home Earth Solar System Stars & Galaxies Technology
JPL Solar System Dynamics
BODIES ORBITS EPHEMERIDES TOOLS PHYSICAL DATA DISCOVERY FAQ SITE MAP
IMPORTANT: The SSD Announcement email list is now available. Major changes are coming in the near future, including possible hostname and/or URL changes. To be notified of such changes, subscribe to this email list.

Please visit this page for more details.


JPL Small-Body Database Browser
Search: [ help ]  
295580 (2008 SO110)
Classification: Main-belt Asteroid          SPK-ID: 2295580
Ephemeris | Orbit Diagram | Orbital Elements | Mission Design | Physical Parameters | Discovery Circumstances ]

[ show orbit diagram ]
Orbital Elements at Epoch 2458600.5 (2019-Apr-27.0) TDB
Reference: JPL 15 (heliocentric ecliptic J2000)
 Element Value Uncertainty (1-sigma)   Units 
e .04790723135309562 4.4092e-08  
a 2.432458337879056 2.1466e-08 au
q 2.315925993529518 1.1374e-07 au
i 6.305890218334856 6.7235e-06 deg
node 174.1670112173229 4.6034e-05 deg
peri 261.313204211204 0.00010497 deg
M 227.5253550820602 0.00010011 deg
tp 2459110.413847544200
(2020-Sep-17.91384754)
0.00038837 TDB
period 1385.691467447391
3.79
1.8342e-05
5.022e-08
d
yr
n .2597980924737618 3.4389e-09 deg/d
Q 2.548990682228595 2.2494e-08 au
  Orbit Determination Parameters
   # obs. used (total)      173  
   data-arc span      6942 days (19.01 yr)  
   first obs. used      2000-09-03  
   last obs. used      2019-09-06  
   planetary ephem.      DE431  
   SB-pert. ephem.      SB431-N16  
   condition code      0  
   norm. resid. RMS      .56021  
   source      ORB  
   producer      Otto Matic  
   solution date      2019-Sep-24 05:43:24  

Additional Information
 Earth MOID = 1.34028 au 
 Jupiter MOID = 2.55725 au 
 T_jup = 3.497 
[ show covariance matrix ]

Ephemeris | Orbit Diagram | Orbital Elements | Mission Design | Physical Parameters | Discovery Circumstances ]

Physical Parameter Table
Parameter Symbol Value Units Sigma Reference Notes
absolute magnitude H 17.0   n/a MPO440401  

295580 (2008 SO110)          Discovered 2008-Sep-22 by Spacewatch at Kitt Peak
Reference: 20110912/Numbers.arcLast Updated: 2011-09-14

Alternate Designations
 2008 SO110 = 2004 RY352 = 2006 CU5 
Ephemeris | Orbit Diagram | Orbital Elements | Mission Design | Physical Parameters | Discovery Circumstances ]
ABOUT SSD CREDITS/AWARDS PRIVACY/COPYRIGHT GLOSSARY LINKS
FirstGov
(server date/time)  
NASA Home Page
Site Manager:   Ryan S. Park
Webmaster  Alan B. Chamberlin